Wind_Speed
2 3 5 7 8 9 11 13 14 15 16 18 20 21 22 23 23 24 24 25 25 25 26 27 27 27 27 28 27 28 28 28 28 28 27 27 27 27
2 3 4 5 7 9 10 11 13 15 15 16 18 20 21 22 23 24 25 25 25 26 26 27 28 27 28 29 29 29 30 30 30 30 30 30 30 29
2 3 4 5 6 7 9 10 12 14 15 16 18 19 21 22 23 24 24 25 26 26 26 27 28 29 29 29 30 31 31 31 31 31 31 31 31 31
1 2 4 5 6 7 8 9 11 12 14 15 16 17 18 20 21 23 24 25 26 26 26 26 27 29 30 30 30 31 31 32 32 33 33 33 33 33
1 2 4 5 6 7 9 9 10 11 12 13 14 16 17 18 19 21 22 23 24 25 25 26 27 28 29 30 30 31 32 32 33 34 34 35 35 35
2 3 4 5 6 7 8 9 10 11 12 12 13 14 15 16 18 19 20 21 22 24 25 26 27 28 29 30 31 32 33 33 34 34 35 35 35 36
4 5 5 5 6 7 8 9 10 11 11 13 13 14 15 16 17 18 19 20 22 23 24 26 27 28 29 30 31 32 33 33 34 35 35 36 37 37
6 6 6 7 7 8 8 9 10 11 12 12 13 14 15 16 17 18 19 20 21 22 24 25 26 27 28 30 31 31 32 33 34 35 35 35 36 37
8 8 7 8 8 8 9 10 10 10 11 12 13 14 15 16 17 17 18 19 20 20 22 24 24 24 26 27 28 30 30 31 33 34 35 36 36 37
10 10 10 9 9 9 10 10 11 11 12 12 13 14 14 15 16 17 18 18 19 20 20 22 23 24 24 25 26 28 29 30 32 33 34 34 36 37
14 13 13 12 11 11 11 12 12 12 12 13 13 14 14 15 16 16 17 18 19 19 20 21 22 23 24 25 26 27 28 29 31 32 34 34 35 36
17 16 15 15 14 14 14 13 14 14 14 14 14 15 16 16 17 17 18 19 19 20 20 22 23 23 25 26 26 27 29 30 31 33 34 35 35 35
20 19 18 18 17 17 16 16 16 16 15 15 15 16 16 17 17 18 19 19 20 20 21 22 23 24 25 26 27 28 28 29 31 33 34 35 35 35
24 22 21 20 19 19 18 18 18 18 17 17 17 17 17 18 18 19 20 20 21 21 22 23 24 25 26 27 28 29 29 30 31 32 33 34 35 36
27 26 24 23 22 21 20 20 19 19 19 18 18 18 18 19 19 20 20 21 21 22 23 24 24 25 26 27 28 30 31 31 31 32 34 35 36 37
31 29 28 27 25 24 23 23 22 21 21 20 20 20 20 20 20 21 21 22 22 23 24 25 25 26 27 27 28 29 31 31 32 33 34 35 36 37
34 32 31 30 29 28 27 26 25 24 24 23 23 22 22 22 22 22 23 23 24 24 25 26 26 27 28 28 29 30 31 32 33 34 35 36 37 38
36 35 34 33 32 30 29 29 28 27 27 26 25 25 24 24 24 24 24 25 25 25 26 26 27 28 29 30 30 31 32 33 34 35 36 36 37 39
39 38 37 36 34 33 32 31 31 30 29 29 28 27 27 26 26 26 26 26 27 27 27 27 28 29 30 31 32 33 33 34 34 35 36 37 37 39
41 40 39 38 37 36 35 34 33 32 31 31 30 29 29 29 28 28 28 28 28 28 29 29 30 30 31 32 33 34 35 35 35 36 36 37 38 39
43 42 41 41 40 39 37 36 35 34 33 33 32 31 31 30 30 30 29 29 30 30 30 31 31 31 32 33 33 34 36 36 36 37 37 38 38 39
45 44 43 42 42 41 40 38 37 36 35 34 34 33 32 32 31 31 30 30 31 31 31 32 33 33 33 34 34 35 36 37 38 38 38 39 39 39
48 47 45 44 43 42 41 40 39 38 36 36 35 34 34 33 32 32 32 31 31 31 32 33 33 34 35 35 36 36 37 38 38 39 41 41 41 42
Wind_Direction
165 182 192 192 196 199 200 203 208 213 214 215 216 220 224 225 226 227 229 232 234 235 236 236 237 240 242 244 246 246 247 248 249 250 250 251 251 253
139 170 189 197 200 205 205 207 211 216 219 220 219 223 226 228 229 231 232 234 236 238 239 239 240 243 244 245 247 249 250 250 251 251 252 252 253 255
162 184 198 206 213 211 212 214 216 218 221 223 225 227 230 232 233 234 236 238 239 240 241 242 243 245 246 248 250 252 251 251 251 252 253 253 254 255
213 207 209 215 221 220 219 219 219 220 222 224 229 230 232 233 236 238 240 241 241 242 243 244 245 247 248 250 252 253 252 252 253 254 254 255 256 257
275 237 226 223 224 223 224 227 226 225 227 228 233 235 236 236 239 240 240 240 242 242 244 246 248 250 251 253 253 254 255 255 255 256 256 257 257 258
286 260 243 233 229 226 225 226 229 230 233 235 237 237 239 241 242 244 244 243 245 246 247 249 251 253 253 255 255 255 256 257 258 258 257 257 258 258
275 265 254 242 234 231 230 229 230 233 238 240 241 242 243 245 248 249 249 250 251 251 253 254 255 256 256 257 258 258 257 257 258 259 259 259 259 259
270 263 256 251 247 244 241 239 238 239 242 244 246 247 247 249 250 252 253 253 254 255 257 258 260 260 259 259 259 259 259 258 258 259 259 260 260 261
265 262 259 256 254 251 248 246 246 247 248 251 252 253 252 251 253 254 255 256 256 259 259 260 262 262 262 262 262 262 261 259 260 259 259 260 261 262
263 260 258 256 255 254 251 249 250 251 252 254 256 255 255 255 257 258 259 260 259 261 263 263 264 265 266 265 265 264 264 264 263 263 263 264 264 264
261 259 258 256 255 254 254 253 253 253 256 259 259 259 260 259 258 259 261 264 264 263 264 265 267 268 269 268 268 268 267 267 266 266 266 266 267 267
259 258 256 256 256 255 256 257 258 259 259 260 262 263 264 266 265 264 264 265 266 266 266 267 268 269 271 271 270 270 270 269 268 267 267 267 267 268
257 257 256 255 255 255 255 257 260 262 263 263 264 265 266 267 268 268 268 268 268 269 269 270 270 270 271 272 273 273 272 272 272 271 270 270 270 270
256 255 255 254 255 255 256 257 259 260 262 264 265 266 268 269 269 270 270 271 271 271 271 272 272 273 273 274 275 276 276 275 275 274 273 273 273 273
255 255 254 254 254 255 256 256 258 259 261 263 265 267 268 269 270 271 272 272 273 273 274 274 274 275 275 276 277 277 279 279 279 277 276 275 275 275
253 253 254 254 254 254 255 257 258 258 260 262 265 266 268 269 271 272 274 274 275 275 275 276 277 277 277 278 279 280 280 280 280 280 280 278 277 276
253 253 253 253 254 254 255 256 257 259 260 262 264 266 268 269 271 273 275 276 276 276 276 277 277 278 279 280 280 281 281 281 281 281 281 280 280 279
252 253 252 253 253 254 255 256 257 258 260 262 263 265 267 269 271 273 275 276 277 278 278 279 280 280 281 281 282 282 283 283 283 282 282 281 281 281
252 252 252 253 253 254 255 256 257 258 260 261 263 264 266 268 270 272 274 276 277 278 279 281 282 282 283 283 284 284 285 285 285 284 284 283 283 282
252 252 252 252 253 254 254 255 256 257 259 260 262 264 265 267 270 271 273 275 277 278 280 281 283 284 285 285 285 286 286 287 287 286 286 285 285 284
250 251 251 252 252 253 254 255 256 257 258 260 261 263 265 267 269 271 273 275 277 278 280 282 284 285 286 287 287 288 288 288 288 288 288 287 287 287
248 249 250 251 252 252 253 254 255 256 258 259 261 263 265 267 269 271 273 275 277 279 280 282 284 285 287 288 288 289 290 290 290 290 289 289 288 287
246 247 248 250 251 251 252 253 254 256 257 259 260 262 264 267 268 270 272 274 276 279 281 283 285 286 287 289 290 291 291 292 292 293 292 291 290 289
Height
5780 5781 5782 5784 5786 5788 5790 5793 5796 5798 5801 5804 5808 5811 5814 5817 5820 5824 5827 5830 5833 5835 5838 5841 5843 5846 5848 5850 5852 5855 5857 5858 5860 5862 5864 5865 5867 5868
5781 5782 5783 5784 5785 5787 5789 5791 5793 5796 5798 5801 5804 5807 5810 5813 5816 5819 5822 5824 5827 5830 5832 5835 5837 5840 5842 5844 5846 5848 5850 5852 5854 5855 5857 5859 5860 5862
5782 5782 5783 5784 5785 5786 5788 5789 5791 5794 5796 5798 5801 5803 5806 5808 5811 5814 5816 5819 5821 5823 5826 5828 5831 5833 5835 5837 5839 5841 5843 5845 5846 5848 5850 5851 5853 5854
5782 5782 5783 5783 5784 5785 5786 5787 5789 5791 5793 5795 5797 5799 5801 5804 5806 5808 5810 5812 5815 5817 5819 5822 5824 5826 5828 5830 5832 5833 5835 5837 5839 5840 5842 5844 5845 5846
5782 5782 5782 5782 5783 5784 5784 5786 5787 5788 5790 5792 5793 5795 5797 5799 5801 5803 5805 5807 5809 5811 5813 5815 5817 5819 5821 5822 5824 5826 5827 5829 5831 5832 5833 5835 5836 5837
5781 5781 5781 5781 5781 5782 5783 5783 5784 5786 5787 5789 5790 5791 5793 5794 5796 5797 5799 5801 5803 5805 5806 5808 5810 5812 5813 5815 5816 5817 5819 5820 5822 5823 5824 5826 5827 5828
5780 5780 5780 5780 5780 5780 5781 5781 5782 5783 5784 5785 5786 5787 5788 5790 5791 5792 5794 5795 5797 5798 5799 5801 5803 5804 5805 5806 5807 5808 5810 5811 5812 5814 5815 5816 5817 5819
5779 5778 5778 5778 5778 5778 5778 5779 5779 5780 5781 5781 5782 5783 5784 5785 5786 5787 5788 5789 5791 5792 5793 5794 5795 5796 5797 5798 5799 5800 5801 5802 5803 5804 5805 5806 5807 5808
5777 5776 5776 5775 5775 5775 5776 5776 5776 5777 5777 5778 5778 5779 5780 5781 5782 5782 5783 5784 5785 5786 5787 5787 5788 5789 5789 5790 5790 5791 5792 5792 5793 5794 5795 5796 5797 5798
5774 5773 5773 5773 5773 5773 5773 5773 5773 5773 5774 5774 5774 5775 5775 5776 5776 5777 5778 5778 5779 5779 5780 5781 5781 5782 5782 5782 5782 5783 5783 5783 5784 5785 5785 5786 5787 5788
5770 5769 5769 5769 5769 5769 5769 5769 5770 5770 5770 5770 5770 5770 5771 5771 5771 5772 5772 5773 5773 5773 5774 5774 5774 5774 5774 5774 5775 5775 5775 5775 5775 5775 5776 5776 5777 5777
5765 5765 5765 5765 5765 5765 5765 5765 5765 5765 5765 5765 5766 5766 5766 5766 5766 5767 5767 5767 5767 5768 5768 5768 5767 5767 5767 5767 5767 5767 5766 5766 5766 5766 5766 5766 5766 5766
5759 5759 5759 5759 5760 5760 5760 5760 5760 5760 5761 5761 5761 5761 5761 5761 5761 5761 5761 5761 5761 5761 5761 5761 5760 5760 5760 5759 5758 5758 5758 5757 5757 5756 5756 5756 5756 5756
5753 5753 5753 5753 5754 5754 5754 5754 5755 5755 5755 5755 5755 5755 5755 5755 5755 5755 5755 5755 5754 5754 5754 5754 5753 5753 5752 5752 5751 5750 5749 5749 5748 5747 5746 5746 5746 5745
5745 5745 5746 5746 5747 5747 5748 5748 5748 5749 5749 5749 5749 5749 5749 5749 5749 5748 5748 5748 5748 5747 5747 5746 5746 5745 5745 5744 5743 5742 5741 5740 5739 5737 5736 5736 5735 5734
5736 5737 5738 5738 5739 5740 5741 5741 5742 5742 5742 5743 5743 5743 5743 5742 5742 5742 5741 5741 5741 5740 5740 5739 5738 5738 5737 5736 5735 5733 5732 5731 5729 5728 5727 5725 5724 5723
5726 5727 5729 5730 5731 5732 5732 5733 5734 5734 5735 5735 5735 5735 5735 5735 5735 5735 5734 5734 5733 5732 5732 5731 5730 5729 5728 5727 5726 5725 5723 5722 5720 5718 5717 5715 5713 5712
5715 5717 5719 5720 5721 5722 5723 5724 5725 5726 5727 5727 5727 5728 5728 5728 5727 5727 5726 5726 5725 5724 5723 5722 5721 5720 5720 5718 5717 5715 5714 5712 5710 5708 5707 5705 5703 5700
5704 5706 5708 5709 5711 5712 5713 5715 5716 5717 5717 5718 5719 5719 5719 5719 5719 5718 5718 5717 5717 5716 5715 5714 5712 5711 5710 5708 5707 5705 5704 5702 5700 5698 5696 5694 5692 5689
5691 5694 5696 5698 5700 5701 5703 5704 5706 5707 5708 5709 5709 5710 5710 5710 5710 5709 5709 5708 5708 5707 5706 5705 5703 5702 5700 5699 5697 5695 5693 5691 5689 5687 5685 5682 5680 5678
5678 5681 5683 5686 5688 5690 5692 5693 5695 5696 5698 5699 5699 5700 5700 5700 5700 5700 5700 5699 5698 5697 5696 5695 5694 5692 5690 5689 5687 5684 5682 5680 5678 5676 5673 5671 5669 5666
5664 5667 5670 5672 5675 5678 5680 5682 5684 5686 5687 5688 5689 5690 5690 5690 5690 5690 5690 5689 5688 5687 5686 5685 5684 5682 5680 5678 5676 5674 5671 5668 5665 5663 5661 5659 5656 5654
5649 5652 5655 5659 5662 5665 5667 5670 5672 5674 5676 5677 5678 5679 5680 5680 5680 5680 5680 5679 5678 5677 5676 5675 5673 5672 5670 5668 5665 5663 5660 5657 5654 5651 5648 5644 5642 5640